ATLAS 5 CENTAUR DEB, 43983

Orbit data source: Space-Track

ATLAS 5 CENTAUR DEB, 43983 is space debris in HEO originally from a launch on Wed, 17 Sep 2014 UTC launched from the Air Force Eastern Test Range (AFETR). Debris objects in space refer to the collection of defunct objects orbiting the Earth. Examples of debris include non-operational satellites, rocket bodies, and fragments generated from explosions, collisions, or faulty payload assembly.

Loading next visibility...
Identifier
43983, 2014-055AN
Orbit
HEO
Country
Flag of USUS
Related business
Flag of USUnited Launch Alliance/Lockheed Martin (US)
Manufacturer
Unknown
Mission
Spacecraft
Bus & Motor
Unknown
Mass
Unknown
Launch date (UTC)
2014-09-17 (11 years ago)
Launch vehicle
Unknown
Launch site
Air Force Eastern Test Range (AFETR)
Object type
Payload
Rocket body
Debris
Shape & HBR
Unknown shape, 1.1 m
Radar Cross Section
Small (<0.1 m²)

Expand to show TLE details & history
Last TLE update: 2 days ago

TLE from 2 days ago
0 ATLAS 5 CENTAUR DEB
1 43983U 14055AN  25348.39119683 -.00000037  00000-0  00000-0 0  9995
2 43983  20.5087 134.9041 4903538 179.7045 180.8148  1.90080998 50489
Epoch: 2025-12-14T09:23Z
TLE epoch observation values (Epoch: 2025-12-14T09:23:19.406Z)
Latitude
-0.00001°
Longitude
-89.25994°
Altitude
34,638.695 km
Speed
2.226 km/s
True Right ascension
08h 59m 30s
True Declination
0° 00' 00"
Sunlit
Object was in daylight at epoch
Visualization orbit readout
Latitude
Unknown
Longitude
Unknown
Altitude
Unknown
Speed
Unknown
Apparent Right ascension
Unknown
Apparent Declination
Unknown
Sunlit
N/A
Visualization observer readout
Local Sidereal Time
09:43:12
Azimuth
Unknown
Elevation
Unknown
Doppler factor
Unknown
Orbital elements
Apogee altitude
34,651.417 km
Perigee altitude
7,652.462 km
Semi-major axis
27,530.076 km
Eccentricity
0.49035
Inclination
20.5087°
RAAN
134.9041°
Arg. of periapsis
179.7045°
True anomaly
180.31971°
Mean anomaly
180.8148°
Eccentric anomaly
180.54672°
Mean motion
0.47515 °/min
Orbital period
757.65 mins
BSTAR
0
Loading maneuver chart data...
Computing Atmospheric mass density...

Documentation

Showing up to 5 results
|